Hourly Weather Holovkove

Today, 11 April, Sunday

Time Temperature Precipitation Wind Pressure Humidity
00:00 +5°C° 0 mm 3 mps 761 mmHg 54%
01:00 +4°C° 0 mm 3 mps 761 mmHg 57%
02:00 +4°C° 0 mm 3 mps 761 mmHg 59%
03:00 +4°C° 0 mm 3 mps 761 mmHg 61%
04:00 +3°C° 0 mm 3 mps 761 mmHg 63%
05:00 +3°C° 0 mm 4 mps 761 mmHg 65%
06:00 +5°C° 0 mm 4 mps 761 mmHg 60%
07:00 +7°C° 0 mm 5 mps 761 mmHg 55%
08:00 +8°C° 0 mm 5 mps 762 mmHg 50%
09:00 +10°C° 0 mm 6 mps 761 mmHg 46%
10:00 +11°C° 0 mm 6 mps 761 mmHg 41%
11:00 +12°C° 0 mm 7 mps 761 mmHg 37%
12:00 +14°C° 0 mm 7 mps 760 mmHg 36%
13:00 +14°C° 0 mm 7 mps 760 mmHg 34%
14:00 +15°C° 0 mm 7 mps 760 mmHg 33%
15:00 +15°C° 0 mm 7 mps 760 mmHg 35%
16:00 +14°C° 0 mm 6 mps 759 mmHg 37%
17:00 +14°C° 0 mm 6 mps 759 mmHg 39%
18:00 +13°C° 0 mm 5 mps 759 mmHg 43%
19:00 +11°C° 0 mm 4 mps 759 mmHg 47%
20:00 +10°C° 0 mm 4 mps 759 mmHg 52%
21:00 +8°C° 0 mm 4 mps 759 mmHg 53%
22:00 +8°C° 0 mm 4 mps 759 mmHg 54%
23:00 +8°C° 0 mm 4 mps 759 mmHg 56%

Tomorrow, 12 April, Monday

Time Temperature Precipitation Wind Pressure Humidity
00:00 +8°C° 0 mm 5 mps 759 mmHg 57%
01:00 +7°C° 0 mm 5 mps 758 mmHg 59%
02:00 +7°C° 0 mm 5 mps 758 mmHg 60%
03:00 +7°C° 0 mm 5 mps 758 mmHg 62%
04:00 +7°C° 0 mm 5 mps 758 mmHg 63%
05:00 +7°C° 0 mm 5 mps 758 mmHg 64%
06:00 +7°C° 0 mm 4 mps 757 mmHg 67%
07:00 +8°C° 0 mm 4 mps 757 mmHg 69%
08:00 +8°C° 0 mm 4 mps 757 mmHg 71%
09:00 +11°C° 0 mm 4 mps 757 mmHg 69%
10:00 +13°C° 0 mm 3 mps 757 mmHg 67%
11:00 +16°C° 0 mm 3 mps 756 mmHg 64%
12:00 +16°C° 0 mm 3 mps 756 mmHg 65%
13:00 +16°C° 0 mm 3 mps 756 mmHg 66%
14:00 +16°C° 0 mm 3 mps 756 mmHg 67%
15:00 +14°C° 0 mm 3 mps 756 mmHg 71%
16:00 +13°C° 0 mm 3 mps 756 mmHg 76%
17:00 +12°C° 0 mm 3 mps 756 mmHg 80%
18:00 +11°C° 0 mm 3 mps 756 mmHg 82%
19:00 +11°C° 0 mm 3 mps 756 mmHg 84%
20:00 +11°C° 0 mm 3 mps 757 mmHg 87%
21:00 +10°C° 0 mm 3 mps 756 mmHg 87%
22:00 +10°C° 0 mm 3 mps 756 mmHg 87%
23:00 +10°C° 0 mm 3 mps 756 mmHg 87%

Day after tomorrow, 13 April, Tuesday

Time Temperature Precipitation Wind Pressure Humidity
00:00 +10°C° 0 mm 3 mps 756 mmHg 88%
01:00 +10°C° 0 mm 3 mps 756 mmHg 88%
02:00 +10°C° 0 mm 3 mps 757 mmHg 88%
03:00 +9°C° 0 mm 3 mps 757 mmHg 88%
04:00 +9°C° 0 mm 2 mps 757 mmHg 88%
05:00 +9°C° 0 mm 2 mps 757 mmHg 89%
06:00 +9°C° 0 mm 3 mps 757 mmHg 85%
07:00 +10°C° 0 mm 3 mps 757 mmHg 82%
08:00 +11°C° 0 mm 3 mps 757 mmHg 78%
09:00 +12°C° 0 mm 3 mps 757 mmHg 73%
10:00 +13°C° 0 mm 3 mps 757 mmHg 68%
11:00 +14°C° 0 mm 4 mps 757 mmHg 62%
12:00 +14°C° 0 mm 3 mps 756 mmHg 61%
13:00 +16°C° 0 mm 3 mps 756 mmHg 59%
14:00 +16°C° 0 mm 3 mps 756 mmHg 57%
15:00 +16°C° 0 mm 3 mps 756 mmHg 58%
16:00 +14°C° 0 mm 3 mps 756 mmHg 60%
17:00 +14°C° 0 mm 3 mps 756 mmHg 61%
18:00 +13°C° 0 mm 3 mps 756 mmHg 65%
19:00 +14°C° 0 mm 2 mps 756 mmHg 68%
20:00 +13°C° 0 mm 2 mps 756 mmHg 71%
21:00 +12°C° 0 mm 2 mps 756 mmHg 76%
22:00 +12°C° 0 mm 2 mps 756 mmHg 80%
23:00 +10°C° 0 mm 2 mps 756 mmHg 85%

14 April, Wednesday

Time Temperature Precipitation Wind Pressure Humidity
00:00 +9°C° 0 mm 2 mps 756 mmHg 87%
01:00 +9°C° 0 mm 2 mps 756 mmHg 88%
02:00 +8°C° 0 mm 2 mps 756 mmHg 90%
03:00 +8°C° 0 mm 2 mps 755 mmHg 91%
04:00 +8°C° 0 mm 2 mps 755 mmHg 92%
05:00 +7°C° 0 mm 2 mps 755 mmHg 93%
06:00 +9°C° 0 mm 2 mps 755 mmHg 88%
07:00 +10°C° 0 mm 2 mps 755 mmHg 83%
08:00 +12°C° 0 mm 2 mps 755 mmHg 78%
09:00 +13°C° 0 mm 2 mps 755 mmHg 72%
10:00 +14°C° 0 mm 2 mps 755 mmHg 67%
11:00 +15°C° 0 mm 2 mps 754 mmHg 61%
12:00 +14°C° 0 mm 3 mps 754 mmHg 59%
13:00 +16°C° 0 mm 3 mps 754 mmHg 56%
14:00 +16°C° 0 mm 3 mps 754 mmHg 53%
15:00 +16°C° 0 mm 3 mps 753 mmHg 55%
16:00 +14°C° 0 mm 3 mps 753 mmHg 57%
17:00 +14°C° 0 mm 3 mps 753 mmHg 59%
18:00 +13°C° 0 mm 3 mps 753 mmHg 63%
19:00 +12°C° 0 mm 3 mps 753 mmHg 66%
20:00 +11°C° 0 mm 3 mps 753 mmHg 70%
21:00 +10°C° 0 mm 3 mps 753 mmHg 75%
22:00 +9°C° 0 mm 3 mps 753 mmHg 81%
23:00 +8°C° 0 mm 3 mps 753 mmHg 86%

15 April, Thursday

Time Temperature Precipitation Wind Pressure Humidity
00:00 +8°C° 0 mm 3 mps 753 mmHg 88%
01:00 +8°C° 0 mm 2 mps 753 mmHg 90%
02:00 +7°C° 0 mm 2 mps 752 mmHg 92%
03:00 +7°C° 0 mm 3 mps 752 mmHg 92%
04:00 +7°C° 0 mm 3 mps 752 mmHg 92%
05:00 +7°C° 0 mm 3 mps 752 mmHg 92%
06:00 +8°C° 0 mm 3 mps 752 mmHg 85%
07:00 +8°C° 0 mm 4 mps 752 mmHg 78%
08:00 +11°C° 0 mm 4 mps 752 mmHg 72%
09:00 +12°C° 0 mm 4 mps 752 mmHg 68%
10:00 +13°C° 0 mm 4 mps 752 mmHg 64%
11:00 +14°C° 0 mm 4 mps 752 mmHg 60%
12:00 +14°C° 0 mm 4 mps 752 mmHg 60%
13:00 +15°C° 0 mm 4 mps 752 mmHg 59%
14:00 +15°C° 0 mm 4 mps 751 mmHg 58%
15:00 +14°C° 0 mm 4 mps 751 mmHg 62%
16:00 +13°C° 0 mm 4 mps 751 mmHg 65%
17:00 +13°C° 0 mm 4 mps 751 mmHg 69%
18:00 +12°C° 0.1 mm 3 mps 751 mmHg 73%
19:00 +12°C° 0.1 mm 2 mps 751 mmHg 78%
20:00 +10°C° 0.1 mm 2 mps 751 mmHg 82%
21:00 +11°C° 0.6 mm 1 mps 751 mmHg 85%
22:00 +11°C° 0.6 mm 1 mps 751 mmHg 88%
23:00 +10°C° 0.6 mm 1 mps 750 mmHg 91%

16 April, Friday

Time Temperature Precipitation Wind Pressure Humidity
00:00 +10°C° 0.4 mm 1 mps 750 mmHg 91%
01:00 +10°C° 0.4 mm 1 mps 750 mmHg 92%
02:00 +9°C° 0.4 mm 0 mps 749 mmHg 93%
03:00 +10°C° 0.5 mm 1 mps 749 mmHg 93%
04:00 +9°C° 0.5 mm 2 mps 749 mmHg 94%
05:00 +9°C° 0.5 mm 2 mps 749 mmHg 94%
06:00 +9°C° 0.3 mm 3 mps 749 mmHg 94%
07:00 +7°C° 0.3 mm 4 mps 749 mmHg 94%
08:00 +7°C° 0.3 mm 4 mps 749 mmHg 94%
09:00 +7°C° 0.1 mm 5 mps 749 mmHg 91%
10:00 +8°C° 0.1 mm 5 mps 750 mmHg 89%
11:00 +8°C° 0.1 mm 5 mps 750 mmHg 86%
12:00 +8°C° 0.2 mm 5 mps 750 mmHg 83%
13:00 +9°C° 0.2 mm 5 mps 750 mmHg 80%
14:00 +10°C° 0.2 mm 4 mps 750 mmHg 77%
15:00 +10°C° 0.1 mm 4 mps 750 mmHg 75%
16:00 +10°C° 0.1 mm 3 mps 750 mmHg 73%
17:00 +10°C° 0.1 mm 3 mps 750 mmHg 72%
18:00 +10°C° 0 mm 3 mps 751 mmHg 74%
19:00 +9°C° 0 mm 2 mps 751 mmHg 77%
20:00 +8°C° 0 mm 2 mps 752 mmHg 80%
21:00 +9°C° 0 mm 1 mps 752 mmHg 81%
22:00 +8°C° 0 mm 1 mps 753 mmHg 83%
23:00 +8°C° 0 mm 1 mps 753 mmHg 85%
Show more